Time,TemperatureF,DewpointF,PressureIn,WindDirection,WindDirectionDegrees,WindSpeedMPH,WindSpeedGustMPH,Humidity,HourlyPrecipIn,Conditions,Clouds,dailyrainin,SoftwareType,DateUTC
2013-03-02 00:03:00,43.7,38.2,30.04,SE,135,0.0,0.0,81,0.00,,,0.00,VWS V14.01,2013-03-01 22:03:00,
2013-03-02 00:08:00,43.7,38.2,30.04,SE,135,0.0,0.0,81,0.00,,,0.00,VWS V14.01,2013-03-01 22:08:00,
2013-03-02 00:13:00,43.5,38.0,30.04,SE,135,0.0,0.0,81,0.00,,,0.00,VWS V14.01,2013-03-01 22:13:00,
2013-03-02 00:18:00,43.3,37.8,30.04,SE,135,0.0,0.0,81,0.00,,,0.00,VWS V14.01,2013-03-01 22:18:00,
2013-03-02 00:23:00,43.3,37.8,30.04,SE,135,0.0,0.0,81,0.00,,,0.00,VWS V14.01,2013-03-01 22:23:00,
2013-03-02 00:28:00,43.3,37.8,30.04,SE,135,0.0,0.0,81,0.00,,,0.00,VWS V14.01,2013-03-01 22:28:00,
2013-03-02 00:33:00,43.3,37.8,30.03,SE,135,0.0,0.0,81,0.00,,,0.00,VWS V14.01,2013-03-01 22:33:00,
2013-03-02 00:38:00,43.2,37.7,30.03,SE,135,0.0,0.0,81,0.00,,,0.00,VWS V14.01,2013-03-01 22:38:00,
2013-03-02 00:43:00,43.3,37.8,30.03,SE,135,0.0,0.0,81,0.00,,,0.00,VWS V14.01,2013-03-01 22:43:00,
2013-03-02 00:48:00,43.2,38.0,30.03,SE,135,0.0,0.0,82,0.00,,,0.00,VWS V14.01,2013-03-01 22:48:00,
2013-03-02 00:53:00,43.2,38.0,30.03,SE,135,0.0,0.0,82,0.00,,,0.00,VWS V14.01,2013-03-01 22:53:00,
2013-03-02 00:58:00,43.3,38.1,30.03,SE,135,0.0,0.0,82,0.00,,,0.00,VWS V14.01,2013-03-01 22:58:00,
2013-03-02 01:04:00,43.5,38.3,30.03,SE,135,0.0,0.0,82,0.00,,,0.00,VWS V14.01,2013-03-01 23:04:00,
2013-03-02 01:09:00,43.5,38.3,30.03,SE,135,0.0,0.0,82,0.00,,,0.00,VWS V14.01,2013-03-01 23:09:00,
2013-03-02 01:14:00,43.7,38.5,30.03,SE,135,0.0,0.0,82,0.00,,,0.00,VWS V14.01,2013-03-01 23:14:00,
2013-03-02 01:19:00,43.5,38.3,30.03,SE,135,0.0,0.0,82,0.00,,,0.00,VWS V14.01,2013-03-01 23:19:00,
2013-03-02 01:24:00,43.5,38.3,30.03,SE,135,0.0,0.0,82,0.00,,,0.00,VWS V14.01,2013-03-01 23:24:00,
2013-03-02 01:29:00,43.3,38.1,30.03,SE,135,0.0,0.0,82,0.00,,,0.00,VWS V14.01,2013-03-01 23:29:00,
2013-03-02 01:34:00,43.3,38.1,30.02,SE,135,0.0,0.0,82,0.00,,,0.00,VWS V14.01,2013-03-01 23:34:00,
2013-03-02 01:39:00,43.3,38.1,30.02,SE,135,0.0,0.0,82,0.00,,,0.00,VWS V14.01,2013-03-01 23:39:00,
2013-03-02 01:44:00,43.3,38.5,30.02,SE,135,0.0,0.0,83,0.00,,,0.00,VWS V14.01,2013-03-01 23:44:00,
2013-03-02 01:49:00,43.3,38.5,30.02,SE,135,0.0,0.0,83,0.00,,,0.00,VWS V14.01,2013-03-01 23:49:00,
2013-03-02 01:54:00,43.7,38.8,30.02,SE,135,0.0,0.0,83,0.00,,,0.00,VWS V14.01,2013-03-01 23:54:00,
2013-03-02 01:59:00,43.9,39.0,30.02,SE,135,0.0,0.0,83,0.00,,,0.00,VWS V14.01,2013-03-01 23:59:00,
2013-03-02 02:04:00,43.9,39.0,30.02,SE,135,0.0,0.0,83,0.00,,,0.00,VWS V14.01,2013-03-02 00:04:00,
2013-03-02 02:09:00,44.1,39.2,30.02,SE,135,0.0,0.0,83,0.00,,,0.00,VWS V14.01,2013-03-02 00:09:00,
2013-03-02 02:14:00,43.9,39.0,30.02,SE,135,0.0,0.0,83,0.00,,,0.00,VWS V14.01,2013-03-02 00:14:00,
2013-03-02 02:19:00,43.7,38.8,30.01,SE,135,0.0,0.0,83,0.00,,,0.00,VWS V14.01,2013-03-02 00:19:00,
2013-03-02 02:24:00,43.7,38.8,30.01,SE,135,0.0,0.0,83,0.00,,,0.00,VWS V14.01,2013-03-02 00:24:00,
2013-03-02 02:29:00,43.3,38.1,30.01,SE,135,0.0,0.0,82,0.00,,,0.00,VWS V14.01,2013-03-02 00:29:00,
2013-03-02 02:34:00,43.0,38.2,30.01,SE,135,0.0,0.0,83,0.00,,,0.00,VWS V14.01,2013-03-02 00:34:00,
2013-03-02 02:39:00,43.0,38.2,30.01,SE,135,0.0,0.0,83,0.00,,,0.00,VWS V14.01,2013-03-02 00:39:00,
2013-03-02 02:45:00,43.2,38.4,30.01,SE,135,0.0,0.0,83,0.00,,,0.00,VWS V14.01,2013-03-02 00:45:00,
2013-03-02 02:50:00,43.0,38.2,30.00,SE,135,0.0,0.0,83,0.00,,,0.00,VWS V14.01,2013-03-02 00:50:00,
2013-03-02 02:55:00,43.3,38.5,30.00,SE,135,0.0,0.0,83,0.00,,,0.00,VWS V14.01,2013-03-02 00:55:00,
2013-03-02 03:00:00,43.5,38.7,30.00,SE,135,0.0,0.0,83,0.00,,,0.00,VWS V14.01,2013-03-02 01:00:00,
2013-03-02 03:05:00,43.5,38.7,30.00,SE,135,0.0,0.0,83,0.00,,,0.00,VWS V14.01,2013-03-02 01:05:00,
2013-03-02 03:10:00,43.5,39.0,30.00,SSE,158,0.0,0.0,84,0.00,,,0.00,VWS V14.01,2013-03-02 01:10:00,
2013-03-02 03:15:00,43.5,38.7,30.00,SSE,158,0.0,0.0,83,0.00,,,0.00,VWS V14.01,2013-03-02 01:15:00,
2013-03-02 03:20:00,43.3,38.5,29.99,SSE,158,0.0,0.0,83,0.00,,,0.00,VWS V14.01,2013-03-02 01:20:00,
2013-03-02 03:25:00,43.0,38.2,29.99,SSE,158,0.0,0.0,83,0.00,,,0.00,VWS V14.01,2013-03-02 01:25:00,
2013-03-02 03:30:00,42.8,38.0,29.99,SSE,158,0.0,0.0,83,0.00,,,0.00,VWS V14.01,2013-03-02 01:30:00,
2013-03-02 03:35:00,42.4,37.9,29.99,SSE,158,0.0,0.0,84,0.00,,,0.00,VWS V14.01,2013-03-02 01:35:00,
2013-03-02 03:40:00,42.6,38.1,29.99,SSE,158,0.0,0.0,84,0.00,,,0.00,VWS V14.01,2013-03-02 01:40:00,
2013-03-02 03:45:00,42.8,38.3,29.99,SSE,158,0.0,0.0,84,0.00,,,0.00,VWS V14.01,2013-03-02 01:45:00,
2013-03-02 03:50:00,42.8,38.3,30.00,SSE,158,0.0,0.0,84,0.00,,,0.00,VWS V14.01,2013-03-02 01:50:00,
2013-03-02 03:56:00,42.8,38.3,29.99,SSE,158,0.0,0.0,84,0.00,,,0.00,VWS V14.01,2013-03-02 01:56:00,
2013-03-02 04:01:00,42.8,38.3,29.99,SSE,158,0.0,0.0,84,0.00,,,0.00,VWS V14.01,2013-03-02 02:01:00,
2013-03-02 04:06:00,42.8,38.3,29.99,SSE,158,0.0,0.0,84,0.00,,,0.00,VWS V14.01,2013-03-02 02:06:00,
2013-03-02 04:11:00,42.4,37.9,29.99,SSE,158,0.0,0.0,84,0.00,,,0.00,VWS V14.01,2013-03-02 02:11:00,
2013-03-02 04:16:00,42.8,38.3,29.99,SSE,158,0.0,0.0,84,0.00,,,0.00,VWS V14.01,2013-03-02 02:16:00,
2013-03-02 04:21:00,42.6,38.1,29.99,SSE,158,0.0,0.0,84,0.00,,,0.00,VWS V14.01,2013-03-02 02:21:00,
2013-03-02 04:26:00,42.4,37.9,29.99,SSE,158,0.0,0.0,84,0.00,,,0.00,VWS V14.01,2013-03-02 02:26:00,
2013-03-02 04:31:00,42.6,38.4,29.99,SSE,158,0.0,0.0,85,0.00,,,0.00,VWS V14.01,2013-03-02 02:31:00,
2013-03-02 04:36:00,43.0,38.8,29.99,SSE,158,0.0,0.0,85,0.00,,,0.00,VWS V14.01,2013-03-02 02:36:00,
2013-03-02 04:41:00,42.8,38.6,29.99,SSE,158,0.0,0.0,85,0.00,,,0.00,VWS V14.01,2013-03-02 02:41:00,
2013-03-02 04:46:00,42.8,38.6,29.99,SSE,158,0.0,0.0,85,0.00,,,0.00,VWS V14.01,2013-03-02 02:46:00,
2013-03-02 04:51:00,42.8,38.6,29.99,SSE,158,0.0,0.0,85,0.00,,,0.00,VWS V14.01,2013-03-02 02:51:00,
2013-03-02 04:56:00,42.8,38.6,29.99,SSE,158,0.0,0.0,85,0.00,,,0.00,VWS V14.01,2013-03-02 02:56:00,
2013-03-02 05:01:00,42.8,38.6,29.99,SSE,158,0.0,0.0,85,0.00,,,0.00,VWS V14.01,2013-03-02 03:01:00,
2013-03-02 05:06:00,42.8,38.9,29.99,SSE,158,0.0,0.0,86,0.00,,,0.00,VWS V14.01,2013-03-02 03:06:00,
2013-03-02 05:11:00,42.8,38.9,29.99,SSE,158,0.0,0.0,86,0.00,,,0.00,VWS V14.01,2013-03-02 03:11:00,
2013-03-02 05:16:00,42.8,38.9,29.99,SSE,158,0.0,0.0,86,0.00,,,0.00,VWS V14.01,2013-03-02 03:16:00,
2013-03-02 05:21:00,42.8,38.9,29.99,SSE,158,0.0,0.0,86,0.00,,,0.00,VWS V14.01,2013-03-02 03:21:00,
2013-03-02 05:27:00,42.8,38.9,29.99,SSE,158,0.0,0.0,86,0.00,,,0.00,VWS V14.01,2013-03-02 03:27:00,
2013-03-02 05:32:00,42.8,38.9,29.99,SSE,158,0.0,0.0,86,0.00,,,0.00,VWS V14.01,2013-03-02 03:32:00,
2013-03-02 05:37:00,42.8,38.9,29.99,SSE,158,0.0,0.0,86,0.00,,,0.00,VWS V14.01,2013-03-02 03:37:00,
2013-03-02 05:42:00,42.8,38.9,29.99,SSE,158,0.0,0.0,86,0.00,,,0.00,VWS V14.01,2013-03-02 03:42:00,
2013-03-02 05:47:00,42.6,38.7,29.99,SSE,158,0.0,0.0,86,0.00,,,0.00,VWS V14.01,2013-03-02 03:47:00,
2013-03-02 05:52:00,42.3,38.4,29.99,SSE,158,0.0,0.0,86,0.00,,,0.00,VWS V14.01,2013-03-02 03:52:00,
2013-03-02 05:57:00,42.1,38.2,29.99,SSE,158,0.0,0.0,86,0.00,,,0.00,VWS V14.01,2013-03-02 03:57:00,
2013-03-02 06:02:00,41.9,38.0,29.98,SSE,158,0.0,0.0,86,0.00,,,0.00,VWS V14.01,2013-03-02 04:02:00,
2013-03-02 06:07:00,41.5,37.6,29.98,SSE,158,0.0,0.0,86,0.00,,,0.00,VWS V14.01,2013-03-02 04:07:00,
2013-03-02 06:12:00,41.5,37.6,29.98,SSE,158,0.0,0.0,86,0.00,,,0.00,VWS V14.01,2013-03-02 04:12:00,
2013-03-02 06:17:00,41.2,37.3,29.98,SSE,158,0.0,0.0,86,0.00,,,0.00,VWS V14.01,2013-03-02 04:17:00,
2013-03-02 06:22:00,41.2,37.3,29.98,SSE,158,0.0,0.0,86,0.00,,,0.00,VWS V14.01,2013-03-02 04:22:00,
2013-03-02 06:27:00,41.2,37.3,29.98,SSE,158,0.0,0.0,86,0.00,,,0.00,VWS V14.01,2013-03-02 04:27:00,
2013-03-02 06:33:00,41.2,37.3,29.98,SSE,158,0.0,0.0,86,0.00,,,0.00,VWS V14.01,2013-03-02 04:33:00,
2013-03-02 06:38:00,41.2,37.3,29.98,SSE,158,0.0,0.0,86,0.00,,,0.00,VWS V14.01,2013-03-02 04:38:00,
2013-03-02 06:43:00,41.2,37.3,29.98,SSE,158,0.0,0.0,86,0.00,,,0.00,VWS V14.01,2013-03-02 04:43:00,
2013-03-02 06:48:00,41.2,37.6,29.98,SSE,158,0.0,0.0,87,0.00,,,0.00,VWS V14.01,2013-03-02 04:48:00,
2013-03-02 06:53:00,41.2,37.6,29.98,SSE,158,0.0,0.0,87,0.00,,,0.00,VWS V14.01,2013-03-02 04:53:00,
2013-03-02 06:58:00,41.2,37.6,29.98,SSE,158,0.0,0.0,87,0.00,,,0.00,VWS V14.01,2013-03-02 04:58:00,
2013-03-02 07:00:00,41.2,37.6,29.98,SSE,158,0.0,0.0,87,0.00,,,0.00,VWS V14.01,2013-03-02 05:00:00,
2013-03-02 07:03:00,41.2,37.6,29.98,SSE,158,0.0,0.0,87,0.00,,,0.00,VWS V14.01,2013-03-02 05:03:00,
2013-03-02 07:04:00,41.2,37.6,29.98,SSE,158,0.0,0.0,87,0.00,,,0.00,VWS V14.01,2013-03-02 05:04:00,
2013-03-02 07:09:00,41.2,37.6,29.98,SSE,158,0.0,0.0,87,0.00,,,0.00,VWS V14.01,2013-03-02 05:09:00,
2013-03-02 07:14:00,41.2,37.6,29.98,SSE,158,0.0,0.0,87,0.00,,,0.00,VWS V14.01,2013-03-02 05:14:00,
2013-03-02 07:19:00,41.5,37.9,29.98,SSE,158,0.0,0.0,87,0.00,,,0.00,VWS V14.01,2013-03-02 05:19:00,
2013-03-02 07:24:00,41.7,38.1,29.99,SSE,158,0.0,0.0,87,0.00,,,0.00,VWS V14.01,2013-03-02 05:24:00,
2013-03-02 07:29:00,41.9,38.3,29.99,SSE,158,0.0,0.0,87,0.00,,,0.00,VWS V14.01,2013-03-02 05:29:00,
2013-03-02 07:34:00,42.1,38.5,29.99,SSE,158,0.0,0.0,87,0.00,,,0.00,VWS V14.01,2013-03-02 05:34:00,
2013-03-02 07:40:00,42.4,38.8,29.99,SSE,158,0.0,0.0,87,0.00,,,0.00,VWS V14.01,2013-03-02 05:40:00,
2013-03-02 07:45:00,42.8,39.5,29.99,SSE,158,0.0,0.0,88,0.00,,,0.00,VWS V14.01,2013-03-02 05:45:00,
2013-03-02 07:50:00,43.5,40.2,29.99,SSE,158,0.0,0.0,88,0.00,,,0.00,VWS V14.01,2013-03-02 05:50:00,
2013-03-02 07:55:00,43.9,40.5,29.99,SSE,158,0.0,0.0,88,0.00,,,0.00,VWS V14.01,2013-03-02 05:55:00,
2013-03-02 08:00:00,44.6,41.2,29.99,SSE,158,0.0,0.0,88,0.00,,,0.00,VWS V14.01,2013-03-02 06:00:00,
2013-03-02 08:05:00,45.1,41.7,29.99,SSE,158,0.0,0.0,88,0.00,,,0.00,VWS V14.01,2013-03-02 06:05:00,
2013-03-02 08:10:00,46.0,42.6,29.99,SSE,158,0.0,0.0,88,0.00,,,0.00,VWS V14.01,2013-03-02 06:10:00,
2013-03-02 08:15:00,46.4,42.4,29.99,SSE,158,0.0,0.0,86,0.00,,,0.00,VWS V14.01,2013-03-02 06:15:00,
2013-03-02 08:20:00,47.5,42.6,29.99,SSE,158,0.0,0.0,83,0.00,,,0.00,VWS V14.01,2013-03-02 06:20:00,
2013-03-02 08:25:00,47.8,42.2,29.99,SSE,158,0.0,0.0,81,0.00,,,0.00,VWS V14.01,2013-03-02 06:25:00,
2013-03-02 08:30:00,48.4,42.5,29.99,SSE,158,0.0,0.0,80,0.00,,,0.00,VWS V14.01,2013-03-02 06:30:00,
2013-03-02 08:35:00,49.1,42.8,29.99,SSE,158,0.0,0.0,79,0.00,,,0.00,VWS V14.01,2013-03-02 06:35:00,
2013-03-02 08:40:00,49.5,42.9,29.99,SSE,158,0.0,0.0,78,0.00,,,0.00,VWS V14.01,2013-03-02 06:40:00,
2013-03-02 08:45:00,50.0,43.0,29.99,SSE,158,0.0,0.0,77,0.00,,,0.00,VWS V14.01,2013-03-02 06:45:00,
2013-03-02 08:50:00,50.9,43.2,29.99,SSE,158,0.0,0.0,75,0.00,,,0.00,VWS V14.01,2013-03-02 06:50:00,
2013-03-02 08:55:00,50.9,42.9,29.99,SSE,158,0.0,0.0,74,0.00,,,0.00,VWS V14.01,2013-03-02 06:55:00,
2013-03-02 09:00:00,51.3,43.3,29.99,SSE,158,0.0,0.0,74,0.00,,,0.00,VWS V14.01,2013-03-02 07:00:00,
2013-03-02 09:05:00,51.4,43.4,29.99,SSE,158,0.0,0.0,74,0.00,,,0.00,VWS V14.01,2013-03-02 07:05:00,
2013-03-02 09:10:00,51.6,43.2,29.99,SSE,158,0.0,0.0,73,0.00,,,0.00,VWS V14.01,2013-03-02 07:10:00,
2013-03-02 09:16:00,51.8,43.4,29.99,SE,135,0.0,0.0,73,0.00,,,0.00,VWS V14.01,2013-03-02 07:16:00,
2013-03-02 09:21:00,52.0,43.2,29.99,SE,135,0.0,0.0,72,0.00,,,0.00,VWS V14.01,2013-03-02 07:21:00,
2013-03-02 09:26:00,52.0,43.6,29.99,SE,135,0.0,0.0,73,0.00,,,0.00,VWS V14.01,2013-03-02 07:26:00,
2013-03-02 09:31:00,51.8,43.0,29.98,SE,135,0.0,0.0,72,0.00,,,0.00,VWS V14.01,2013-03-02 07:31:00,
2013-03-02 09:36:00,51.4,42.7,29.98,SE,135,0.0,0.0,72,0.00,,,0.00,VWS V14.01,2013-03-02 07:36:00,
2013-03-02 09:41:00,51.6,43.2,29.99,SE,135,0.0,0.0,73,0.00,,,0.00,VWS V14.01,2013-03-02 07:41:00,
2013-03-02 09:46:00,51.8,43.4,29.99,SE,135,0.0,0.0,73,0.00,,,0.00,VWS V14.01,2013-03-02 07:46:00,
2013-03-02 09:51:00,52.0,43.6,29.99,SE,135,0.0,0.0,73,0.00,,,0.00,VWS V14.01,2013-03-02 07:51:00,
2013-03-02 09:56:00,52.0,43.2,29.99,SE,135,0.0,0.0,72,0.00,,,0.00,VWS V14.01,2013-03-02 07:56:00,
2013-03-02 10:01:00,52.0,43.2,29.99,SE,135,0.0,0.0,72,0.00,,,0.00,VWS V14.01,2013-03-02 08:01:00,
2013-03-02 10:06:00,52.0,43.2,29.99,SE,135,0.0,0.0,72,0.00,,,0.00,VWS V14.01,2013-03-02 08:06:00,
2013-03-02 10:11:00,52.2,43.4,29.99,SE,135,0.0,0.0,72,0.00,,,0.00,VWS V14.01,2013-03-02 08:11:00,
2013-03-02 10:16:00,52.9,44.1,29.98,SE,135,0.0,0.0,72,0.00,,,0.00,VWS V14.01,2013-03-02 08:16:00,
2013-03-02 10:21:00,53.2,44.0,29.98,SE,135,0.0,0.0,71,0.00,,,0.00,VWS V14.01,2013-03-02 08:21:00,
2013-03-02 10:26:00,53.4,43.8,29.98,SE,135,0.0,0.0,70,0.00,,,0.00,VWS V14.01,2013-03-02 08:26:00,
2013-03-02 10:32:00,54.1,43.4,29.98,ESE,112,0.0,0.0,67,0.00,,,0.00,VWS V14.01,2013-03-02 08:32:00,
2013-03-02 10:37:00,54.5,43.7,29.98,ESE,112,0.0,0.0,67,0.00,,,0.00,VWS V14.01,2013-03-02 08:37:00,
2013-03-02 10:42:00,55.4,44.6,29.98,ESE,112,0.0,0.0,67,0.00,,,0.00,VWS V14.01,2013-03-02 08:42:00,
2013-03-02 10:47:00,55.6,42.8,29.98,ESE,112,0.0,0.0,62,0.00,,,0.00,VWS V14.01,2013-03-02 08:47:00,
2013-03-02 10:52:00,55.4,43.0,29.98,SE,135,0.0,0.0,63,0.00,,,0.00,VWS V14.01,2013-03-02 08:52:00,
2013-03-02 10:57:00,55.4,43.0,29.98,SSE,158,0.0,0.0,63,0.00,,,0.00,VWS V14.01,2013-03-02 08:57:00,
2013-03-02 11:02:00,55.9,43.0,29.98,SSE,158,0.0,0.0,62,0.00,,,0.00,VWS V14.01,2013-03-02 09:02:00,
2013-03-02 11:07:00,55.6,42.3,29.98,SSE,158,0.0,0.0,61,0.00,,,0.00,VWS V14.01,2013-03-02 09:07:00,
2013-03-02 11:12:00,55.9,42.6,29.98,SE,135,0.0,0.0,61,0.00,,,0.00,VWS V14.01,2013-03-02 09:12:00,
2013-03-02 11:17:00,55.6,41.9,29.98,SE,135,0.0,0.0,60,0.00,,,0.00,VWS V14.01,2013-03-02 09:17:00,
2013-03-02 11:22:00,55.9,42.6,29.98,ESE,112,2.2,2.2,61,0.00,,,0.00,VWS V14.01,2013-03-02 09:22:00,
2013-03-02 11:27:00,55.9,41.8,29.97,East,90,5.5,5.5,59,0.00,,,0.00,VWS V14.01,2013-03-02 09:27:00,
2013-03-02 11:32:00,55.8,41.2,29.97,East,90,0.0,0.0,58,0.00,,,0.00,VWS V14.01,2013-03-02 09:32:00,
2013-03-02 11:37:00,56.5,41.9,29.97,ESE,112,1.5,1.5,58,0.00,,,0.00,VWS V14.01,2013-03-02 09:37:00,
2013-03-02 11:42:00,56.8,41.7,29.97,East,90,0.0,0.0,57,0.00,,,0.00,VWS V14.01,2013-03-02 09:42:00,
2013-03-02 11:47:00,56.7,41.2,29.97,ESE,112,3.8,4.9,56,0.00,,,0.00,VWS V14.01,2013-03-02 09:47:00,
2013-03-02 11:52:00,56.5,40.5,29.97,East,90,0.0,0.0,55,0.00,,,0.00,VWS V14.01,2013-03-02 09:52:00,
2013-03-02 11:58:00,56.7,42.1,29.96,SSE,158,0.6,0.6,58,0.00,,,0.00,VWS V14.01,2013-03-02 09:58:00,
2013-03-02 12:03:00,56.7,41.6,29.96,SSE,158,0.0,0.0,57,0.00,,,0.00,VWS V14.01,2013-03-02 10:03:00,
2013-03-02 12:08:00,57.2,43.0,29.97,SSE,158,0.0,0.0,59,0.00,,,0.00,VWS V14.01,2013-03-02 10:08:00,
2013-03-02 12:13:00,57.2,42.5,29.96,ESE,112,0.0,0.0,58,0.00,,,0.00,VWS V14.01,2013-03-02 10:13:00,
2013-03-02 12:18:00,57.2,42.1,29.96,ESE,112,0.0,0.0,57,0.00,,,0.00,VWS V14.01,2013-03-02 10:18:00,
2013-03-02 12:23:00,57.0,41.4,29.96,ESE,112,4.2,4.2,56,0.00,,,0.00,VWS V14.01,2013-03-02 10:23:00,
2013-03-02 12:28:00,57.2,40.7,29.96,ESE,112,0.0,0.0,54,0.00,,,0.00,VWS V14.01,2013-03-02 10:28:00,
2013-03-02 12:33:00,57.4,42.3,29.96,ESE,112,1.1,1.1,57,0.00,,,0.00,VWS V14.01,2013-03-02 10:33:00,
2013-03-02 12:39:00,57.6,42.9,29.96,South,180,0.0,0.0,58,0.00,,,0.00,VWS V14.01,2013-03-02 10:39:00,
2013-03-02 12:44:00,57.7,43.9,29.95,ESE,112,0.0,0.0,60,0.00,,,0.00,VWS V14.01,2013-03-02 10:44:00,
2013-03-02 12:49:00,57.2,43.4,29.95,ESE,112,8.7,8.7,60,0.00,,,0.00,VWS V14.01,2013-03-02 10:49:00,
2013-03-02 12:54:00,56.8,43.9,29.95,SSE,158,0.0,0.0,62,0.00,,,0.00,VWS V14.01,2013-03-02 10:54:00,
2013-03-02 12:59:00,56.7,44.2,29.94,ENE,68,0.0,0.0,63,0.00,,,0.00,VWS V14.01,2013-03-02 10:59:00,
2013-03-02 13:05:00,55.9,44.3,29.95,East,90,0.0,0.0,65,0.00,,,0.00,VWS V14.01,2013-03-02 11:05:00,
2013-03-02 13:10:00,55.6,44.0,29.95,ESE,112,0.0,0.0,65,0.00,,,0.00,VWS V14.01,2013-03-02 11:10:00,
2013-03-02 13:15:00,55.9,44.7,29.94,East,90,6.9,6.9,66,0.00,,,0.00,VWS V14.01,2013-03-02 11:15:00,
2013-03-02 13:20:00,55.6,44.4,29.94,ENE,68,1.7,7.6,66,0.00,,,0.00,VWS V14.01,2013-03-02 11:20:00,
2013-03-02 13:25:00,55.6,44.4,29.94,East,90,8.0,8.0,66,0.00,,,0.00,VWS V14.01,2013-03-02 11:25:00,
2013-03-02 13:30:00,55.6,44.4,29.94,ESE,112,0.0,0.0,66,0.00,,,0.00,VWS V14.01,2013-03-02 11:30:00,
2013-03-02 13:35:00,56.3,45.1,29.94,ESE,112,7.3,7.3,66,0.00,,,0.00,VWS V14.01,2013-03-02 11:35:00,
2013-03-02 13:40:00,56.3,45.1,29.94,ESE,112,2.0,2.0,66,0.00,,,0.00,VWS V14.01,2013-03-02 11:40:00,
2013-03-02 13:45:00,55.9,44.7,29.93,East,90,2.4,2.4,66,0.00,,,0.00,VWS V14.01,2013-03-02 11:45:00,
2013-03-02 13:50:00,55.8,44.6,29.94,ESE,112,0.0,0.0,66,0.00,,,0.00,VWS V14.01,2013-03-02 11:50:00,
2013-03-02 13:55:00,55.8,44.6,29.93,ESE,112,1.3,4.9,66,0.00,,,0.00,VWS V14.01,2013-03-02 11:55:00,
2013-03-02 14:00:00,55.6,44.4,29.93,ESE,112,4.9,4.9,66,0.00,,,0.00,VWS V14.01,2013-03-02 12:00:00,
2013-03-02 14:05:00,55.4,44.2,29.93,ESE,112,5.1,5.1,66,0.00,,,0.00,VWS V14.01,2013-03-02 12:05:00,
2013-03-02 14:10:00,55.4,44.6,29.93,ENE,68,7.6,7.6,67,0.00,,,0.00,VWS V14.01,2013-03-02 12:10:00,
2013-03-02 14:15:00,55.0,44.2,29.93,ESE,112,3.1,3.1,67,0.00,,,0.00,VWS V14.01,2013-03-02 12:15:00,
2013-03-02 14:20:00,55.2,44.4,29.93,ENE,68,0.6,0.6,67,0.00,,,0.00,VWS V14.01,2013-03-02 12:20:00,
2013-03-02 14:25:00,55.2,44.4,29.93,ESE,112,0.0,0.0,67,0.00,,,0.00,VWS V14.01,2013-03-02 12:25:00,
2013-03-02 14:30:00,55.0,44.6,29.93,ESE,112,0.0,0.2,68,0.00,,,0.00,VWS V14.01,2013-03-02 12:30:00,
2013-03-02 14:35:00,55.0,44.6,29.93,East,90,0.2,0.2,68,0.00,,,0.00,VWS V14.01,2013-03-02 12:35:00,
2013-03-02 14:41:00,55.0,44.6,29.93,ESE,112,2.0,2.0,68,0.00,,,0.00,VWS V14.01,2013-03-02 12:41:00,
2013-03-02 14:46:00,54.9,44.5,29.93,ESE,112,0.6,0.6,68,0.00,,,0.00,VWS V14.01,2013-03-02 12:46:00,
2013-03-02 14:51:00,54.9,44.5,29.93,ENE,68,2.6,2.6,68,0.00,,,0.00,VWS V14.01,2013-03-02 12:51:00,
2013-03-02 14:56:00,54.7,44.3,29.93,East,90,4.6,8.0,68,0.00,,,0.00,VWS V14.01,2013-03-02 12:56:00,
2013-03-02 15:01:00,54.5,44.1,29.93,East,90,0.6,6.7,68,0.00,,,0.00,VWS V14.01,2013-03-02 13:01:00,
2013-03-02 15:06:00,54.5,44.5,29.93,East,90,6.0,6.9,69,0.00,,,0.00,VWS V14.01,2013-03-02 13:06:00,
2013-03-02 15:11:00,54.3,44.3,29.93,East,90,0.0,0.0,69,0.00,,,0.00,VWS V14.01,2013-03-02 13:11:00,
2013-03-02 15:16:00,54.5,44.9,29.93,ENE,68,2.2,2.2,70,0.00,,,0.00,VWS V14.01,2013-03-02 13:16:00,
2013-03-02 15:21:00,54.5,44.9,29.93,NE,45,3.1,3.1,70,0.00,,,0.00,VWS V14.01,2013-03-02 13:21:00,
2013-03-02 15:26:00,54.5,44.5,29.93,NE,45,0.0,0.0,69,0.00,,,0.00,VWS V14.01,2013-03-02 13:26:00,
2013-03-02 15:31:00,54.7,44.3,29.93,ENE,68,1.1,1.1,68,0.00,,,0.00,VWS V14.01,2013-03-02 13:31:00,
2013-03-02 15:36:00,54.9,44.5,29.93,ENE,68,0.0,0.0,68,0.00,,,0.00,VWS V14.01,2013-03-02 13:36:00,
2013-03-02 15:41:00,54.9,44.1,29.93,East,90,0.6,0.6,67,0.00,,,0.00,VWS V14.01,2013-03-02 13:41:00,
2013-03-02 15:46:00,54.7,43.5,29.93,ENE,68,2.9,2.9,66,0.00,,,0.00,VWS V14.01,2013-03-02 13:46:00,
2013-03-02 15:51:00,54.9,43.7,29.93,ENE,68,0.0,0.0,66,0.00,,,0.00,VWS V14.01,2013-03-02 13:51:00,
2013-03-02 15:56:00,54.9,43.3,29.93,NE,45,0.0,0.0,65,0.00,,,0.00,VWS V14.01,2013-03-02 13:56:00,
2013-03-02 16:01:00,54.9,43.3,29.93,ESE,112,0.0,0.0,65,0.00,,,0.00,VWS V14.01,2013-03-02 14:01:00,
2013-03-02 16:06:00,55.0,43.0,29.93,NE,45,0.0,0.0,64,0.00,,,0.00,VWS V14.01,2013-03-02 14:06:00,
2013-03-02 16:11:00,54.9,42.9,29.93,ESE,112,1.5,1.5,64,0.00,,,0.00,VWS V14.01,2013-03-02 14:11:00,
2013-03-02 16:16:00,54.7,42.7,29.94,ESE,112,0.0,0.0,64,0.00,,,0.00,VWS V14.01,2013-03-02 14:16:00,
2013-03-02 16:21:00,54.5,42.5,29.93,East,90,0.0,0.0,64,0.00,,,0.00,VWS V14.01,2013-03-02 14:21:00,
2013-03-02 16:27:00,54.5,42.5,29.93,ESE,112,0.0,0.0,64,0.00,,,0.00,VWS V14.01,2013-03-02 14:27:00,
2013-03-02 16:32:00,54.5,42.5,29.93,East,90,0.6,0.6,64,0.00,,,0.00,VWS V14.01,2013-03-02 14:32:00,
2013-03-02 16:37:00,54.5,42.5,29.93,East,90,0.0,0.0,64,0.00,,,0.00,VWS V14.01,2013-03-02 14:37:00,
2013-03-02 16:42:00,54.3,42.8,29.93,East,90,0.0,0.0,65,0.00,,,0.00,VWS V14.01,2013-03-02 14:42:00,
2013-03-02 16:47:00,54.3,42.8,29.93,East,90,2.2,2.2,65,0.00,,,0.00,VWS V14.01,2013-03-02 14:47:00,
2013-03-02 16:52:00,54.5,42.5,29.93,East,90,2.0,2.0,64,0.00,,,0.00,VWS V14.01,2013-03-02 14:52:00,
2013-03-02 16:57:00,54.3,42.0,29.93,ESE,112,4.9,4.9,63,0.00,,,0.00,VWS V14.01,2013-03-02 14:57:00,
2013-03-02 17:02:00,54.1,42.2,29.93,ESE,112,3.8,3.8,64,0.00,,,0.00,VWS V14.01,2013-03-02 15:02:00,
2013-03-02 17:07:00,53.8,41.9,29.93,ESE,112,2.9,2.9,64,0.00,,,0.00,VWS V14.01,2013-03-02 15:07:00,
2013-03-02 17:12:00,53.8,42.3,29.93,ESE,112,4.0,7.1,65,0.00,,,0.00,VWS V14.01,2013-03-02 15:12:00,
2013-03-02 17:17:00,53.6,42.5,29.92,ESE,112,0.0,0.0,66,0.00,,,0.00,VWS V14.01,2013-03-02 15:17:00,
2013-03-02 17:22:00,53.6,42.9,29.93,East,90,0.0,0.0,67,0.00,,,0.00,VWS V14.01,2013-03-02 15:22:00,
2013-03-02 17:27:00,53.6,43.3,29.93,East,90,0.0,0.0,68,0.00,,,0.00,VWS V14.01,2013-03-02 15:27:00,
2013-03-02 17:32:00,53.2,43.3,29.93,ESE,112,0.0,0.0,69,0.00,,,0.00,VWS V14.01,2013-03-02 15:32:00,
2013-03-02 17:37:00,53.1,43.2,29.94,ESE,112,0.0,0.0,69,0.00,,,0.00,VWS V14.01,2013-03-02 15:37:00,
2013-03-02 17:42:00,52.9,43.0,29.94,ESE,112,0.0,0.0,69,0.00,,,0.00,VWS V14.01,2013-03-02 15:42:00,
2013-03-02 17:47:00,52.7,42.8,29.94,ESE,112,0.0,0.0,69,0.00,,,0.00,VWS V14.01,2013-03-02 15:47:00,
2013-03-02 17:52:00,52.5,43.0,29.94,East,90,0.0,0.0,70,0.00,,,0.00,VWS V14.01,2013-03-02 15:52:00,
2013-03-02 17:57:00,52.3,42.8,29.94,East,90,0.0,0.0,70,0.00,,,0.00,VWS V14.01,2013-03-02 15:57:00,
2013-03-02 18:02:00,52.0,42.5,29.95,East,90,0.0,0.0,70,0.00,,,0.00,VWS V14.01,2013-03-02 16:02:00,
2013-03-02 18:07:00,52.0,42.5,29.94,East,90,0.0,0.0,70,0.00,,,0.00,VWS V14.01,2013-03-02 16:07:00,
2013-03-02 18:13:00,51.8,41.9,29.94,East,90,0.0,0.0,69,0.00,,,0.00,VWS V14.01,2013-03-02 16:13:00,
2013-03-02 18:18:00,51.8,42.3,29.94,East,90,0.0,0.0,70,0.00,,,0.00,VWS V14.01,2013-03-02 16:18:00,
2013-03-02 18:23:00,51.8,42.3,29.94,East,90,0.0,0.0,70,0.00,,,0.00,VWS V14.01,2013-03-02 16:23:00,
2013-03-02 18:28:00,51.6,42.1,29.94,East,90,0.0,0.0,70,0.00,,,0.00,VWS V14.01,2013-03-02 16:28:00,
2013-03-02 18:33:00,51.4,41.9,29.94,East,90,0.0,0.0,70,0.00,,,0.00,VWS V14.01,2013-03-02 16:33:00,
2013-03-02 18:38:00,51.4,41.9,29.94,East,90,0.0,0.0,70,0.00,,,0.00,VWS V14.01,2013-03-02 16:38:00,
2013-03-02 18:43:00,51.3,42.2,29.94,East,90,0.0,0.0,71,0.00,,,0.00,VWS V14.01,2013-03-02 16:43:00,
2013-03-02 18:48:00,51.3,42.2,29.94,East,90,0.0,0.0,71,0.00,,,0.00,VWS V14.01,2013-03-02 16:48:00,
2013-03-02 18:53:00,51.1,42.0,29.94,East,90,0.0,0.0,71,0.00,,,0.00,VWS V14.01,2013-03-02 16:53:00,
2013-03-02 18:58:00,51.1,42.0,29.94,East,90,0.0,0.0,71,0.00,,,0.00,VWS V14.01,2013-03-02 16:58:00,
2013-03-02 19:03:00,50.9,42.2,29.94,East,90,0.0,0.0,72,0.00,,,0.00,VWS V14.01,2013-03-02 17:03:00,
2013-03-02 19:08:00,50.9,42.2,29.94,East,90,0.0,0.0,72,0.00,,,0.00,VWS V14.01,2013-03-02 17:08:00,
2013-03-02 19:13:00,50.9,42.2,29.95,East,90,0.0,0.0,72,0.00,,,0.00,VWS V14.01,2013-03-02 17:13:00,
2013-03-02 19:18:00,50.9,42.2,29.94,East,90,0.0,0.0,72,0.00,,,0.00,VWS V14.01,2013-03-02 17:18:00,
2013-03-02 19:23:00,50.9,42.2,29.95,East,90,0.0,0.0,72,0.00,,,0.00,VWS V14.01,2013-03-02 17:23:00,
2013-03-02 19:28:00,50.9,42.5,29.94,East,90,0.0,0.0,73,0.00,,,0.00,VWS V14.01,2013-03-02 17:28:00,
2013-03-02 19:33:00,50.9,42.5,29.94,ESE,112,0.0,0.0,73,0.00,,,0.00,VWS V14.01,2013-03-02 17:33:00,
2013-03-02 19:38:00,50.9,42.9,29.95,ESE,112,0.0,0.0,74,0.00,,,0.00,VWS V14.01,2013-03-02 17:38:00,
2013-03-02 19:44:00,50.9,42.9,29.95,ESE,112,0.0,0.0,74,0.00,,,0.00,VWS V14.01,2013-03-02 17:44:00,
2013-03-02 19:49:00,50.9,42.9,29.95,ESE,112,0.0,0.0,74,0.00,,,0.00,VWS V14.01,2013-03-02 17:49:00,
2013-03-02 19:54:00,50.9,43.2,29.95,ESE,112,0.0,0.0,75,0.00,,,0.00,VWS V14.01,2013-03-02 17:54:00,
2013-03-02 19:59:00,50.9,43.2,29.95,ESE,112,0.0,0.0,75,0.00,,,0.00,VWS V14.01,2013-03-02 17:59:00,
2013-03-02 20:04:00,50.9,43.2,29.95,ESE,112,0.0,0.0,75,0.00,,,0.00,VWS V14.01,2013-03-02 18:04:00,
2013-03-02 20:09:00,50.9,43.6,29.95,ESE,112,0.0,0.0,76,0.00,,,0.00,VWS V14.01,2013-03-02 18:09:00,
2013-03-02 20:14:00,50.9,43.6,29.95,ESE,112,0.0,0.0,76,0.00,,,0.00,VWS V14.01,2013-03-02 18:14:00,
2013-03-02 20:19:00,50.7,43.4,29.95,ESE,112,0.0,0.0,76,0.00,,,0.00,VWS V14.01,2013-03-02 18:19:00,
2013-03-02 20:24:00,50.7,43.4,29.95,ENE,68,1.7,1.7,76,0.00,,,0.00,VWS V14.01,2013-03-02 18:24:00,
2013-03-02 20:29:00,50.7,43.4,29.95,ESE,112,0.0,0.0,76,0.00,,,0.00,VWS V14.01,2013-03-02 18:29:00,
2013-03-02 20:34:00,50.7,43.0,29.95,East,90,0.0,0.0,75,0.00,,,0.00,VWS V14.01,2013-03-02 18:34:00,
2013-03-02 20:39:00,50.9,42.9,29.95,NE,45,2.9,2.9,74,0.00,,,0.00,VWS V14.01,2013-03-02 18:39:00,
2013-03-02 20:44:00,50.9,42.9,29.94,ENE,68,1.1,1.1,74,0.00,,,0.00,VWS V14.01,2013-03-02 18:44:00,
2013-03-02 20:49:00,50.9,42.9,29.94,NE,45,0.0,0.0,74,0.00,,,0.00,VWS V14.01,2013-03-02 18:49:00,
2013-03-02 20:54:00,50.9,42.5,29.94,ENE,68,2.4,2.4,73,0.00,,,0.00,VWS V14.01,2013-03-02 18:54:00,
2013-03-02 21:00:00,51.1,42.7,29.94,NE,45,2.2,2.2,73,0.00,,,0.00,VWS V14.01,2013-03-02 19:00:00,
2013-03-02 21:05:00,51.1,42.7,29.94,NE,45,0.0,0.0,73,0.00,,,0.00,VWS V14.01,2013-03-02 19:05:00,
2013-03-02 21:10:00,51.1,42.7,29.95,ESE,112,0.0,0.0,73,0.00,,,0.00,VWS V14.01,2013-03-02 19:10:00,
2013-03-02 21:15:00,51.1,43.1,29.94,NE,45,0.0,0.0,74,0.00,,,0.00,VWS V14.01,2013-03-02 19:15:00,
2013-03-02 21:20:00,51.3,43.3,29.94,NE,45,0.0,0.0,74,0.00,,,0.00,VWS V14.01,2013-03-02 19:20:00,
2013-03-02 21:25:00,51.3,43.3,29.94,NE,45,0.0,0.0,74,0.00,,,0.00,VWS V14.01,2013-03-02 19:25:00,
2013-03-02 21:30:00,51.3,43.3,29.94,East,90,0.0,0.0,74,0.00,,,0.00,VWS V14.01,2013-03-02 19:30:00,
2013-03-02 21:35:00,51.3,43.3,29.93,ENE,68,0.0,0.0,74,0.00,,,0.00,VWS V14.01,2013-03-02 19:35:00,
2013-03-02 21:40:00,51.1,43.4,29.93,NE,45,0.0,2.9,75,0.00,,,0.00,VWS V14.01,2013-03-02 19:40:00,
2013-03-02 21:45:00,51.3,43.6,29.93,NE,45,3.3,7.6,75,0.00,,,0.00,VWS V14.01,2013-03-02 19:45:00,
2013-03-02 21:50:00,51.3,44.0,29.93,ENE,68,0.0,0.0,76,0.00,,,0.00,VWS V14.01,2013-03-02 19:50:00,
2013-03-02 21:55:00,51.3,44.0,29.93,ENE,68,6.0,6.0,76,0.00,,,0.00,VWS V14.01,2013-03-02 19:55:00,
2013-03-02 22:00:00,51.3,44.0,29.93,NE,45,1.5,1.5,76,0.00,,,0.00,VWS V14.01,2013-03-02 20:00:00,
2013-03-02 22:05:00,51.4,44.1,29.93,ENE,68,0.0,0.0,76,0.00,,,0.00,VWS V14.01,2013-03-02 20:05:00,
2013-03-02 22:10:00,51.4,44.1,29.93,ENE,68,3.8,3.8,76,0.00,,,0.00,VWS V14.01,2013-03-02 20:10:00,
2013-03-02 22:15:00,51.4,44.1,29.93,NNE,22,0.6,0.6,76,0.00,,,0.00,VWS V14.01,2013-03-02 20:15:00,
2013-03-02 22:21:00,51.4,44.1,29.93,ENE,68,4.4,4.4,76,0.00,,,0.00,VWS V14.01,2013-03-02 20:21:00,
2013-03-02 22:26:00,51.4,44.1,29.92,NE,45,0.0,0.0,76,0.00,,,0.00,VWS V14.01,2013-03-02 20:26:00,
2013-03-02 22:31:00,51.3,44.3,29.92,NE,45,1.3,1.3,77,0.00,,,0.00,VWS V14.01,2013-03-02 20:31:00,
2013-03-02 22:36:00,51.4,44.4,29.92,NE,45,1.3,1.3,77,0.00,,,0.00,VWS V14.01,2013-03-02 20:36:00,
2013-03-02 22:41:00,51.3,44.3,29.92,East,90,5.1,5.1,77,0.00,,,0.00,VWS V14.01,2013-03-02 20:41:00,
2013-03-02 22:46:00,51.4,44.4,29.91,NE,45,9.3,9.3,77,0.00,,,0.00,VWS V14.01,2013-03-02 20:46:00,
2013-03-02 22:51:00,51.4,44.4,29.91,NE,45,8.2,8.2,77,0.00,,,0.00,VWS V14.01,2013-03-02 20:51:00,
2013-03-02 22:56:00,51.4,44.7,29.92,NE,45,6.2,6.2,78,0.00,,,0.00,VWS V14.01,2013-03-02 20:56:00,
2013-03-02 23:01:00,51.4,44.7,29.91,NE,45,3.5,3.5,78,0.00,,,0.00,VWS V14.01,2013-03-02 21:01:00,
2013-03-02 23:06:00,51.4,44.7,29.91,ENE,68,2.0,2.0,78,0.00,,,0.00,VWS V14.01,2013-03-02 21:06:00,
2013-03-02 23:11:00,51.4,44.7,29.91,ENE,68,0.0,0.0,78,0.00,,,0.00,VWS V14.01,2013-03-02 21:11:00,
2013-03-02 23:16:00,51.4,44.7,29.91,ENE,68,4.4,4.4,78,0.00,,,0.00,VWS V14.01,2013-03-02 21:16:00,
2013-03-02 23:21:00,51.4,44.7,29.91,NE,45,0.0,0.0,78,0.00,,,0.00,VWS V14.01,2013-03-02 21:21:00,
2013-03-02 23:26:00,51.4,45.1,29.91,ENE,68,0.4,4.4,79,0.00,,,0.00,VWS V14.01,2013-03-02 21:26:00,
2013-03-02 23:31:00,51.4,45.1,29.91,NE,45,3.1,3.1,79,0.00,,,0.00,VWS V14.01,2013-03-02 21:31:00,
2013-03-02 23:36:00,51.4,45.1,29.90,NE,45,4.4,4.4,79,0.00,,,0.00,VWS V14.01,2013-03-02 21:36:00,
2013-03-02 23:41:00,51.6,45.3,29.91,NE,45,0.4,3.1,79,0.00,,,0.00,VWS V14.01,2013-03-02 21:41:00,
2013-03-02 23:46:00,51.8,45.5,29.91,NNE,22,3.3,9.6,79,0.00,,,0.00,VWS V14.01,2013-03-02 21:46:00,
2013-03-02 23:52:00,51.8,45.1,29.90,ENE,68,3.3,7.8,78,0.00,,,0.00,VWS V14.01,2013-03-02 21:52:00,
2013-03-02 23:57:00,51.8,45.1,29.90,NNE,22,5.3,7.8,78,0.00,,,0.00,VWS V14.01,2013-03-02 21:57:00,